Year,Month,Day,Hour,Minute,Value (Times are PST for windspeed in km/hr)
2011,09,25,00,00,0.00
2011,09,25,00,01,1.60
2011,09,25,00,02,3.20
2011,09,25,00,03,2.70
2011,09,25,00,04,0.00
2011,09,25,00,05,0.00
2011,09,25,00,06,0.80
2011,09,25,00,07,0.00
2011,09,25,00,08,0.00
2011,09,25,00,09,0.00
2011,09,25,00,10,1.00
2011,09,25,00,11,4.40
2011,09,25,00,12,1.80
2011,09,25,00,13,0.00
2011,09,25,00,14,0.10
2011,09,25,00,15,7.00
2011,09,25,00,16,4.90
2011,09,25,00,17,0.00
2011,09,25,00,18,0.00
2011,09,25,00,19,0.10
2011,09,25,00,20,0.00
2011,09,25,00,21,0.00
2011,09,25,00,22,0.00
2011,09,25,00,23,0.20
2011,09,25,00,24,0.00
2011,09,25,00,25,0.00
2011,09,25,00,26,0.00
2011,09,25,00,27,0.00
2011,09,25,00,28,0.00
2011,09,25,00,29,0.00
2011,09,25,00,30,0.10
2011,09,25,00,31,0.00
2011,09,25,00,32,0.10
2011,09,25,00,33,2.50
2011,09,25,00,34,3.20
2011,09,25,00,35,0.00
2011,09,25,00,36,0.10
2011,09,25,00,37,0.10
2011,09,25,00,38,0.00
2011,09,25,00,39,2.30
2011,09,25,00,40,3.90
2011,09,25,00,41,0.70
2011,09,25,00,42,0.10
2011,09,25,00,43,0.00
2011,09,25,00,44,0.00
2011,09,25,00,45,0.00
2011,09,25,00,46,0.00
2011,09,25,00,47,0.00
2011,09,25,00,48,0.00
2011,09,25,00,49,0.00
2011,09,25,00,50,0.00
2011,09,25,00,51,0.00
2011,09,25,00,52,0.00
2011,09,25,00,53,0.00
2011,09,25,00,54,0.00
2011,09,25,00,55,2.70
2011,09,25,00,56,5.90
2011,09,25,00,57,6.50
2011,09,25,00,58,2.20
2011,09,25,00,59,0.20
2011,09,25,01,00,0.00
2011,09,25,01,01,0.00
2011,09,25,01,02,0.20
2011,09,25,01,03,2.80
2011,09,25,01,04,1.20
2011,09,25,01,05,0.10
2011,09,25,01,06,5.00
2011,09,25,01,07,6.70
2011,09,25,01,08,3.80
2011,09,25,01,09,5.90
2011,09,25,01,10,4.70
2011,09,25,01,11,2.70
2011,09,25,01,12,2.40
2011,09,25,01,13,1.70
2011,09,25,01,14,0.20
2011,09,25,01,15,0.10
2011,09,25,01,16,0.00
2011,09,25,01,17,0.00
2011,09,25,01,18,0.10
2011,09,25,01,19,0.00
2011,09,25,01,20,0.00
2011,09,25,01,21,0.90
2011,09,25,01,22,0.80
2011,09,25,01,23,0.50
2011,09,25,01,24,0.20
2011,09,25,01,25,0.90
2011,09,25,01,26,3.20
2011,09,25,01,27,5.20
2011,09,25,01,28,5.10
2011,09,25,01,29,4.70
2011,09,25,01,30,4.70
2011,09,25,01,31,4.60
2011,09,25,01,32,5.10
2011,09,25,01,33,5.20
2011,09,25,01,34,5.60
2011,09,25,01,35,7.00
2011,09,25,01,36,8.10
2011,09,25,01,37,7.40
2011,09,25,01,38,4.90
2011,09,25,01,39,1.90
2011,09,25,01,40,2.60
2011,09,25,01,41,2.70
2011,09,25,01,42,4.90
2011,09,25,01,43,7.80
2011,09,25,01,44,7.30
2011,09,25,01,45,7.20
2011,09,25,01,46,0.90
2011,09,25,01,47,3.70
2011,09,25,01,48,2.80
2011,09,25,01,49,6.30
2011,09,25,01,50,4.30
2011,09,25,01,51,0.00
2011,09,25,01,52,0.00
2011,09,25,01,53,4.80
2011,09,25,01,54,5.30
2011,09,25,01,55,5.60
2011,09,25,01,56,6.80
2011,09,25,01,57,6.00
2011,09,25,01,58,3.60
2011,09,25,01,59,1.60
2011,09,25,02,00,0.70
2011,09,25,02,01,0.00
2011,09,25,02,02,0.00
2011,09,25,02,03,1.70
2011,09,25,02,04,0.60
2011,09,25,02,05,2.10
2011,09,25,02,06,4.20
2011,09,25,02,07,3.90
2011,09,25,02,08,1.30
2011,09,25,02,09,0.00
2011,09,25,02,10,0.00
2011,09,25,02,11,0.00
2011,09,25,02,12,0.00
2011,09,25,02,13,0.00
2011,09,25,02,14,0.00
2011,09,25,02,15,0.10
2011,09,25,02,16,0.00
2011,09,25,02,17,0.00
2011,09,25,02,18,0.10
2011,09,25,02,19,0.20
2011,09,25,02,20,0.00
2011,09,25,02,21,0.00
2011,09,25,02,22,0.00
2011,09,25,02,23,0.50
2011,09,25,02,24,2.00
2011,09,25,02,25,0.00
2011,09,25,02,26,0.00
2011,09,25,02,27,0.00
2011,09,25,02,28,0.00
2011,09,25,02,29,0.10
2011,09,25,02,30,0.10
2011,09,25,02,31,0.20
2011,09,25,02,32,8.90
2011,09,25,02,33,9.60
2011,09,25,02,34,7.50
2011,09,25,02,35,12.10
2011,09,25,02,36,14.60
2011,09,25,02,37,10.90
2011,09,25,02,38,9.10
2011,09,25,02,39,10.60
2011,09,25,02,40,10.80
2011,09,25,02,41,8.60
2011,09,25,02,42,10.50
2011,09,25,02,43,7.60
2011,09,25,02,44,5.30
2011,09,25,02,45,1.80
2011,09,25,02,46,0.20
2011,09,25,02,47,0.10
2011,09,25,02,48,0.10
2011,09,25,02,49,0.30
2011,09,25,02,50,4.90
2011,09,25,02,51,6.10
2011,09,25,02,52,2.20
2011,09,25,02,53,2.00
2011,09,25,02,54,7.50
2011,09,25,02,55,6.80
2011,09,25,02,56,7.20
2011,09,25,02,57,5.80
2011,09,25,02,58,8.70
2011,09,25,02,59,9.00
2011,09,25,03,00,15.40
2011,09,25,03,01,12.50
2011,09,25,03,02,15.20
2011,09,25,03,03,7.90
2011,09,25,03,04,9.30
2011,09,25,03,05,8.50
2011,09,25,03,06,9.60
2011,09,25,03,07,11.00
2011,09,25,03,08,11.50
2011,09,25,03,09,10.30
2011,09,25,03,10,6.10
2011,09,25,03,11,6.40
2011,09,25,03,12,8.30
2011,09,25,03,13,8.60
2011,09,25,03,14,8.70
2011,09,25,03,15,11.80
2011,09,25,03,16,13.90
2011,09,25,03,17,13.50
2011,09,25,03,18,10.90
2011,09,25,03,19,13.30
2011,09,25,03,20,17.20
2011,09,25,03,21,11.30
2011,09,25,03,22,12.60
2011,09,25,03,23,20.30
2011,09,25,03,24,18.60
2011,09,25,03,25,25.70
2011,09,25,03,26,26.40
2011,09,25,03,27,18.30
2011,09,25,03,28,14.10
2011,09,25,03,29,21.50
2011,09,25,03,30,19.40
2011,09,25,03,31,16.70
2011,09,25,03,32,12.10
2011,09,25,03,33,6.40
2011,09,25,03,34,6.40
2011,09,25,03,35,6.80
2011,09,25,03,36,16.90
2011,09,25,03,37,15.50
2011,09,25,03,38,19.00
2011,09,25,03,39,12.70
2011,09,25,03,40,15.90
2011,09,25,03,41,22.40
2011,09,25,03,42,25.10
2011,09,25,03,43,18.30
2011,09,25,03,44,16.50
2011,09,25,03,45,15.40
2011,09,25,03,46,20.80
2011,09,25,03,47,21.10
2011,09,25,03,48,25.20
2011,09,25,03,49,21.80
2011,09,25,03,50,23.60
2011,09,25,03,51,16.70
2011,09,25,03,52,16.20
2011,09,25,03,53,12.60
2011,09,25,03,54,18.80
2011,09,25,03,55,15.20
2011,09,25,03,56,18.40
2011,09,25,03,57,16.20
2011,09,25,03,58,16.80
2011,09,25,03,59,14.00
2011,09,25,04,00,11.70
2011,09,25,04,01,14.00
2011,09,25,04,02,20.70
2011,09,25,04,03,19.20
2011,09,25,04,04,11.70
2011,09,25,04,05,15.90
2011,09,25,04,06,20.80
2011,09,25,04,07,19.60
2011,09,25,04,08,12.80
2011,09,25,04,09,15.40
2011,09,25,04,10,16.80
2011,09,25,04,11,10.30
2011,09,25,04,12,19.50
2011,09,25,04,13,15.80
2011,09,25,04,14,18.10
2011,09,25,04,15,15.20
2011,09,25,04,16,16.30
2011,09,25,04,17,13.80
2011,09,25,04,18,11.30
2011,09,25,04,19,13.80
2011,09,25,04,20,17.60
2011,09,25,04,21,18.20
2011,09,25,04,22,19.60
2011,09,25,04,23,15.80
2011,09,25,04,24,16.70
2011,09,25,04,25,13.00
2011,09,25,04,26,11.60
2011,09,25,04,27,14.00
2011,09,25,04,28,19.10
2011,09,25,04,29,10.60
2011,09,25,04,30,15.80
2011,09,25,04,31,10.80
2011,09,25,04,32,8.00
2011,09,25,04,33,13.00
2011,09,25,04,34,10.60
2011,09,25,04,35,10.90
2011,09,25,04,36,4.50
2011,09,25,04,37,8.00
2011,09,25,04,38,7.70
2011,09,25,04,39,11.30
2011,09,25,04,40,12.90
2011,09,25,04,41,9.60
2011,09,25,04,42,13.80
2011,09,25,04,43,10.90
2011,09,25,04,44,11.20
2011,09,25,04,45,6.80
2011,09,25,04,46,5.70
2011,09,25,04,47,6.20
2011,09,25,04,48,4.00
2011,09,25,04,49,3.00
2011,09,25,04,50,4.40
2011,09,25,04,51,3.00
2011,09,25,04,52,3.30
2011,09,25,04,53,5.00
2011,09,25,04,54,3.80
2011,09,25,04,55,5.30
2011,09,25,04,56,7.20
2011,09,25,04,57,5.10
2011,09,25,04,58,5.70
2011,09,25,04,59,6.20
2011,09,25,05,00,2.60
2011,09,25,05,01,4.10
2011,09,25,05,02,5.80
2011,09,25,05,03,10.60
2011,09,25,05,04,10.20
2011,09,25,05,05,7.60
2011,09,25,05,06,9.50
2011,09,25,05,07,10.30
2011,09,25,05,08,7.00
2011,09,25,05,09,3.40
2011,09,25,05,10,6.10
2011,09,25,05,11,5.90
2011,09,25,05,12,5.50
2011,09,25,05,13,7.50
2011,09,25,05,14,7.20
2011,09,25,05,15,3.70
2011,09,25,05,16,5.90
2011,09,25,05,17,6.80
2011,09,25,05,18,8.10
2011,09,25,05,19,6.80
2011,09,25,05,20,7.40
2011,09,25,05,21,7.20
2011,09,25,05,22,8.90
2011,09,25,05,23,8.60
2011,09,25,05,24,8.40
2011,09,25,05,25,8.20
2011,09,25,05,26,8.00
2011,09,25,05,27,7.80
2011,09,25,05,28,10.30
2011,09,25,05,29,5.30
2011,09,25,05,30,6.00
2011,09,25,05,31,6.40
2011,09,25,05,32,7.50
2011,09,25,05,33,8.90
2011,09,25,05,34,9.80
2011,09,25,05,35,10.30
2011,09,25,05,36,10.30
2011,09,25,05,37,3.90
2011,09,25,05,38,5.00
2011,09,25,05,39,3.80
2011,09,25,05,40,3.40
2011,09,25,05,41,1.40
2011,09,25,05,42,12.30
2011,09,25,05,43,9.70
2011,09,25,05,44,3.60
2011,09,25,05,45,2.80
2011,09,25,05,46,4.80
2011,09,25,05,47,11.60
2011,09,25,05,48,13.40
2011,09,25,05,49,10.40
2011,09,25,05,50,9.40
2011,09,25,05,51,7.20
2011,09,25,05,52,5.20
2011,09,25,05,53,6.80
2011,09,25,05,54,7.20
2011,09,25,05,55,6.40
2011,09,25,05,56,8.50
2011,09,25,05,57,6.10
2011,09,25,05,58,7.70
2011,09,25,05,59,7.90
2011,09,25,06,00,8.80
2011,09,25,06,01,4.80
2011,09,25,06,02,4.10
2011,09,25,06,03,0.60
2011,09,25,06,04,3.20
2011,09,25,06,05,4.90
2011,09,25,06,06,4.90
2011,09,25,06,07,1.40
2011,09,25,06,08,2.70
2011,09,25,06,09,5.90
2011,09,25,06,10,1.50
2011,09,25,06,11,4.50
2011,09,25,06,12,0.40
2011,09,25,06,13,2.70
2011,09,25,06,14,0.10
2011,09,25,06,15,1.80
2011,09,25,06,16,2.90
2011,09,25,06,17,0.10
2011,09,25,06,18,1.60
2011,09,25,06,19,1.00
2011,09,25,06,20,0.60
2011,09,25,06,21,0.50
2011,09,25,06,22,0.70
2011,09,25,06,23,0.90
2011,09,25,06,24,0.20
2011,09,25,06,25,0.10
2011,09,25,06,26,0.00
2011,09,25,06,27,0.00
2011,09,25,06,28,0.00
2011,09,25,06,29,0.10
2011,09,25,06,30,0.10
2011,09,25,06,31,0.20
2011,09,25,06,32,1.80
2011,09,25,06,33,3.90
2011,09,25,06,34,0.40
2011,09,25,06,35,0.00
2011,09,25,06,36,0.00
2011,09,25,06,37,0.10
2011,09,25,06,38,0.00
2011,09,25,06,39,2.70
2011,09,25,06,40,0.20
2011,09,25,06,41,0.10
2011,09,25,06,42,0.00
2011,09,25,06,43,0.00
2011,09,25,06,44,0.00
2011,09,25,06,45,0.00
2011,09,25,06,46,0.20
2011,09,25,06,47,3.50
2011,09,25,06,48,4.90
2011,09,25,06,49,4.10
2011,09,25,06,50,0.80
2011,09,25,06,51,1.00
2011,09,25,06,52,1.90
2011,09,25,06,53,3.40
2011,09,25,06,54,2.00
2011,09,25,06,55,1.30
2011,09,25,06,56,1.00
2011,09,25,06,57,4.40
2011,09,25,06,58,3.90
2011,09,25,06,59,4.60
2011,09,25,07,00,1.40
2011,09,25,07,01,2.40
2011,09,25,07,02,2.00
2011,09,25,07,03,6.50
2011,09,25,07,04,2.70
2011,09,25,07,05,0.70
2011,09,25,07,06,5.10
2011,09,25,07,07,3.00
2011,09,25,07,08,1.80
2011,09,25,07,09,4.10
2011,09,25,07,10,4.60
2011,09,25,07,11,2.80
2011,09,25,07,12,1.80
2011,09,25,07,13,2.90
2011,09,25,07,14,2.70
2011,09,25,07,15,1.80
2011,09,25,07,16,2.60
2011,09,25,07,17,2.10
2011,09,25,07,18,0.90
2011,09,25,07,19,1.40
2011,09,25,07,20,3.20
2011,09,25,07,21,2.40
2011,09,25,07,22,0.20
2011,09,25,07,23,0.00
2011,09,25,07,24,2.80
2011,09,25,07,25,7.70
2011,09,25,07,26,6.20
2011,09,25,07,27,6.40
2011,09,25,07,28,5.70
2011,09,25,07,29,3.10
2011,09,25,07,30,6.70
2011,09,25,07,31,7.20
2011,09,25,07,32,9.10
2011,09,25,07,33,9.10
2011,09,25,07,34,7.80
2011,09,25,07,35,8.20
2011,09,25,07,36,8.00
2011,09,25,07,37,6.20
2011,09,25,07,38,6.10
2011,09,25,07,39,3.40
2011,09,25,07,40,4.10
2011,09,25,07,41,4.80
2011,09,25,07,42,5.60
2011,09,25,07,43,4.20
2011,09,25,07,44,4.40
2011,09,25,07,45,3.50
2011,09,25,07,46,0.60
2011,09,25,07,47,5.20
2011,09,25,07,48,5.10
2011,09,25,07,49,2.80
2011,09,25,07,50,6.00
2011,09,25,07,51,5.30
2011,09,25,07,52,8.40
2011,09,25,07,53,9.50
2011,09,25,07,54,8.80
2011,09,25,07,55,14.20
2011,09,25,07,56,11.00
2011,09,25,07,57,8.90
2011,09,25,07,58,7.80
2011,09,25,07,59,5.30
2011,09,25,08,00,5.10
2011,09,25,08,01,2.50
2011,09,25,08,02,1.00
2011,09,25,08,03,0.00
2011,09,25,08,04,0.00
2011,09,25,08,05,0.00
2011,09,25,08,06,0.00
2011,09,25,08,07,0.00
2011,09,25,08,08,0.00
2011,09,25,08,09,0.10
2011,09,25,08,10,1.10
2011,09,25,08,11,0.20
2011,09,25,08,12,0.00
2011,09,25,08,13,0.00
2011,09,25,08,14,0.00
2011,09,25,08,15,0.00
2011,09,25,08,16,0.10
2011,09,25,08,17,0.00
2011,09,25,08,18,0.20
2011,09,25,08,19,0.90
2011,09,25,08,20,0.10
2011,09,25,08,21,0.00
2011,09,25,08,22,2.50
2011,09,25,08,23,0.00
2011,09,25,08,24,0.10
2011,09,25,08,25,0.20
2011,09,25,08,26,0.00
2011,09,25,08,27,0.00
2011,09,25,08,28,0.50
2011,09,25,08,29,0.30
2011,09,25,08,30,0.00
2011,09,25,08,31,0.00
2011,09,25,08,32,0.00
2011,09,25,08,33,0.10
2011,09,25,08,34,0.00
2011,09,25,08,35,0.00
2011,09,25,08,36,0.30
2011,09,25,08,37,0.10
2011,09,25,08,38,2.30
2011,09,25,08,39,1.40
2011,09,25,08,40,0.70
2011,09,25,08,41,6.90
2011,09,25,08,42,10.50
2011,09,25,08,43,2.40
2011,09,25,08,44,2.60
2011,09,25,08,45,4.30
2011,09,25,08,46,1.50
2011,09,25,08,47,4.70
2011,09,25,08,48,7.00
2011,09,25,08,49,2.00
2011,09,25,08,50,1.60
2011,09,25,08,51,11.60
2011,09,25,08,52,8.00
2011,09,25,08,53,8.00
2011,09,25,08,54,8.80
2011,09,25,08,55,9.50
2011,09,25,08,56,7.70
2011,09,25,08,57,9.60
2011,09,25,08,58,15.20
2011,09,25,08,59,10.10
2011,09,25,09,00,11.00
2011,09,25,09,01,8.80
2011,09,25,09,02,10.50
2011,09,25,09,03,11.40
2011,09,25,09,04,11.80
2011,09,25,09,05,10.50
2011,09,25,09,06,11.00
2011,09,25,09,07,12.00
2011,09,25,09,08,15.50
2011,09,25,09,09,9.80
2011,09,25,09,10,10.40
2011,09,25,09,11,7.80
2011,09,25,09,12,12.10
2011,09,25,09,13,5.60
2011,09,25,09,14,7.10
2011,09,25,09,15,10.20
2011,09,25,09,16,6.10
2011,09,25,09,17,11.60
2011,09,25,09,18,9.30
2011,09,25,09,19,10.90
2011,09,25,09,20,12.70
2011,09,25,09,21,13.60
2011,09,25,09,22,6.40
2011,09,25,09,23,17.90
2011,09,25,09,24,11.20
2011,09,25,09,25,11.80
2011,09,25,09,26,11.80
2011,09,25,09,27,9.10
2011,09,25,09,28,14.50
2011,09,25,09,29,9.50
2011,09,25,09,30,14.00
2011,09,25,09,31,12.50
2011,09,25,09,32,15.30
2011,09,25,09,33,14.00
2011,09,25,09,34,20.80
2011,09,25,09,35,16.50
2011,09,25,09,36,13.00
2011,09,25,09,37,19.80
2011,09,25,09,38,18.40
2011,09,25,09,39,20.10
2011,09,25,09,40,13.40
2011,09,25,09,41,19.40
2011,09,25,09,42,14.30
2011,09,25,09,43,8.30
2011,09,25,09,44,6.70
2011,09,25,09,45,8.70
2011,09,25,09,46,20.00
2011,09,25,09,47,12.40
2011,09,25,09,48,15.70
2011,09,25,09,49,20.80
2011,09,25,09,50,17.80
2011,09,25,09,51,16.30
2011,09,25,09,52,15.70
2011,09,25,09,53,9.10
2011,09,25,09,54,9.20
2011,09,25,09,55,11.70
2011,09,25,09,56,6.40
2011,09,25,09,57,5.30
2011,09,25,09,58,15.10
2011,09,25,09,59,17.10
2011,09,25,10,00,21.20
2011,09,25,10,01,16.80
2011,09,25,10,02,19.60
2011,09,25,10,03,12.40
2011,09,25,10,04,16.10
2011,09,25,10,05,18.30
2011,09,25,10,06,8.60
2011,09,25,10,07,10.90
2011,09,25,10,08,17.00
2011,09,25,10,09,15.10
2011,09,25,10,10,10.80
2011,09,25,10,11,13.00
2011,09,25,10,12,15.20
2011,09,25,10,13,12.50
2011,09,25,10,14,18.00
2011,09,25,10,15,19.50
2011,09,25,10,16,11.60
2011,09,25,10,17,17.50
2011,09,25,10,18,18.70
2011,09,25,10,19,17.50
2011,09,25,10,20,16.60
2011,09,25,10,21,16.60
2011,09,25,10,22,10.10
2011,09,25,10,23,15.10
2011,09,25,10,24,16.40
2011,09,25,10,25,14.10
2011,09,25,10,26,18.40
2011,09,25,10,27,16.60
2011,09,25,10,28,11.40
2011,09,25,10,29,11.50
2011,09,25,10,30,16.20
2011,09,25,10,31,13.50
2011,09,25,10,32,13.80
2011,09,25,10,33,18.40
2011,09,25,10,34,15.70
2011,09,25,10,35,14.40
2011,09,25,10,36,23.70
2011,09,25,10,37,18.70
2011,09,25,10,38,14.90
2011,09,25,10,39,15.80
2011,09,25,10,40,9.70
2011,09,25,10,41,12.90
2011,09,25,10,42,16.80
2011,09,25,10,43,12.10
2011,09,25,10,44,17.70
2011,09,25,10,45,16.10
2011,09,25,10,46,13.60
2011,09,25,10,47,17.50
2011,09,25,10,48,14.10
2011,09,25,10,49,15.90
2011,09,25,10,50,14.40
2011,09,25,10,51,17.50
2011,09,25,10,52,13.80
2011,09,25,10,53,18.60
2011,09,25,10,54,8.70
2011,09,25,10,55,13.10
2011,09,25,10,56,13.80
2011,09,25,10,57,15.60
2011,09,25,10,58,14.90
2011,09,25,10,59,16.70
2011,09,25,11,00,12.10
2011,09,25,11,01,12.60
2011,09,25,11,02,17.50
2011,09,25,11,03,21.60
2011,09,25,11,04,16.90
2011,09,25,11,05,16.60
2011,09,25,11,06,9.50
2011,09,25,11,07,13.10
2011,09,25,11,08,16.30
2011,09,25,11,09,11.30
2011,09,25,11,10,10.80
2011,09,25,11,11,10.10
2011,09,25,11,12,10.10
2011,09,25,11,13,13.50
2011,09,25,11,14,15.90
2011,09,25,11,15,13.10
2011,09,25,11,16,13.30
2011,09,25,11,17,6.90
2011,09,25,11,18,16.50
2011,09,25,11,19,8.10
2011,09,25,11,20,11.40
2011,09,25,11,21,15.00
2011,09,25,11,22,12.10
2011,09,25,11,23,16.60
2011,09,25,11,24,13.30
2011,09,25,11,25,10.20
2011,09,25,11,26,10.10
2011,09,25,11,27,7.60
2011,09,25,11,28,11.40
2011,09,25,11,29,9.70
2011,09,25,11,30,21.10
2011,09,25,11,31,14.70
2011,09,25,11,32,12.90
2011,09,25,11,33,14.70
2011,09,25,11,34,9.60
2011,09,25,11,35,7.10
2011,09,25,11,36,10.60
2011,09,25,11,37,10.20
2011,09,25,11,38,16.50
2011,09,25,11,39,8.00
2011,09,25,11,40,16.20
2011,09,25,11,41,13.60
2011,09,25,11,42,10.10
2011,09,25,11,43,5.10
2011,09,25,11,44,10.50
2011,09,25,11,45,12.20
2011,09,25,11,46,9.10
2011,09,25,11,47,11.10
2011,09,25,11,48,12.60
2011,09,25,11,49,13.60
2011,09,25,11,50,10.00
2011,09,25,11,51,3.10
2011,09,25,11,52,10.00
2011,09,25,11,53,11.90
2011,09,25,11,54,5.60
2011,09,25,11,55,9.70
2011,09,25,11,56,9.70
2011,09,25,11,57,12.70
2011,09,25,11,58,5.30
2011,09,25,11,59,8.60
2011,09,25,12,00,8.90
2011,09,25,12,01,6.00
2011,09,25,12,02,4.10
2011,09,25,12,03,7.60
2011,09,25,12,04,5.60
2011,09,25,12,05,4.40
2011,09,25,12,06,7.40
2011,09,25,12,07,6.30
2011,09,25,12,08,3.30
2011,09,25,12,09,3.90
2011,09,25,12,10,3.30
2011,09,25,12,11,1.00
2011,09,25,12,12,1.30
2011,09,25,12,13,2.30
2011,09,25,12,14,0.10
2011,09,25,12,15,1.20
2011,09,25,12,16,0.00
2011,09,25,12,17,1.10
2011,09,25,12,18,1.60
2011,09,25,12,19,2.00
2011,09,25,12,20,0.10
2011,09,25,12,21,0.90
2011,09,25,12,22,0.00
2011,09,25,12,23,0.00
2011,09,25,12,24,0.10
2011,09,25,12,25,0.00
2011,09,25,12,26,0.10
2011,09,25,12,27,0.00
2011,09,25,12,28,0.00
2011,09,25,12,29,0.00
2011,09,25,12,30,0.00
2011,09,25,12,31,0.10
2011,09,25,12,32,0.00
2011,09,25,12,33,0.40
2011,09,25,12,34,3.80
2011,09,25,12,35,5.30
2011,09,25,12,36,2.10
2011,09,25,12,37,4.30
2011,09,25,12,38,2.00
2011,09,25,12,39,1.10
2011,09,25,12,40,0.60
2011,09,25,12,41,0.00
2011,09,25,12,42,0.10
2011,09,25,12,43,0.90
2011,09,25,12,44,5.30
2011,09,25,12,45,4.00
2011,09,25,12,46,1.80
2011,09,25,12,47,2.70
2011,09,25,12,48,5.60
2011,09,25,12,49,6.00
2011,09,25,12,50,3.70
2011,09,25,12,51,3.10
2011,09,25,12,52,0.20
2011,09,25,12,53,0.10
2011,09,25,12,54,0.90
2011,09,25,12,55,2.80
2011,09,25,12,56,2.20
2011,09,25,12,57,0.40
2011,09,25,12,58,0.90
2011,09,25,12,59,2.60
2011,09,25,13,00,1.00
2011,09,25,13,01,0.30
2011,09,25,13,02,2.70
2011,09,25,13,03,0.60
2011,09,25,13,04,0.00
2011,09,25,13,05,0.00
2011,09,25,13,06,0.00
2011,09,25,13,07,0.00
2011,09,25,13,08,0.00
2011,09,25,13,09,0.00
2011,09,25,13,10,0.10
2011,09,25,13,11,0.60
2011,09,25,13,12,0.70
2011,09,25,13,13,0.80
2011,09,25,13,14,0.00
2011,09,25,13,15,0.00
2011,09,25,13,16,0.00
2011,09,25,13,17,0.00
2011,09,25,13,18,0.00
2011,09,25,13,19,0.00
2011,09,25,13,20,0.00
2011,09,25,13,21,0.00
2011,09,25,13,22,0.00
2011,09,25,13,23,0.00
2011,09,25,13,24,0.00
2011,09,25,13,25,2.10
2011,09,25,13,26,0.20
2011,09,25,13,27,0.60
2011,09,25,13,28,10.10
2011,09,25,13,29,6.40
2011,09,25,13,30,1.10
2011,09,25,13,31,2.40
2011,09,25,13,32,3.60
2011,09,25,13,33,1.40
2011,09,25,13,34,0.30
2011,09,25,13,35,0.50
2011,09,25,13,36,0.40
2011,09,25,13,37,0.30
2011,09,25,13,38,1.70
2011,09,25,13,39,3.10
2011,09,25,13,40,5.90
2011,09,25,13,41,10.20
2011,09,25,13,42,9.50
2011,09,25,13,43,7.30
2011,09,25,13,44,8.30
2011,09,25,13,45,11.70
2011,09,25,13,46,10.50
2011,09,25,13,47,8.20
2011,09,25,13,48,7.00
2011,09,25,13,49,11.90
2011,09,25,13,50,20.80
2011,09,25,13,51,21.70
2011,09,25,13,52,20.80
2011,09,25,13,53,18.20
2011,09,25,13,54,15.40
2011,09,25,13,55,19.70
2011,09,25,13,56,9.70
2011,09,25,13,57,9.10
2011,09,25,13,58,8.90
2011,09,25,13,59,2.80
2011,09,25,14,00,7.40
2011,09,25,14,01,8.50
2011,09,25,14,02,6.80
2011,09,25,14,03,7.60
2011,09,25,14,04,4.90
2011,09,25,14,05,6.40
2011,09,25,14,06,6.40
2011,09,25,14,07,5.30
2011,09,25,14,08,10.30
2011,09,25,14,09,8.20
2011,09,25,14,10,7.00
2011,09,25,14,11,6.20
2011,09,25,14,12,2.50
2011,09,25,14,13,8.90
2011,09,25,14,14,10.80
2011,09,25,14,15,13.70
2011,09,25,14,16,14.90
2011,09,25,14,17,11.80
2011,09,25,14,18,10.40
2011,09,25,14,19,8.50
2011,09,25,14,20,14.60
2011,09,25,14,21,9.80
2011,09,25,14,22,10.70
2011,09,25,14,23,17.00
2011,09,25,14,24,19.20
2011,09,25,14,25,16.60
2011,09,25,14,26,19.50
2011,09,25,14,27,17.00
2011,09,25,14,28,15.20
2011,09,25,14,29,20.20
2011,09,25,14,30,17.00
2011,09,25,14,31,14.20
2011,09,25,14,32,16.40
2011,09,25,14,33,15.50
2011,09,25,14,34,17.50
2011,09,25,14,35,20.70
2011,09,25,14,36,16.90
2011,09,25,14,37,18.70
2011,09,25,14,38,15.10
2011,09,25,14,39,14.70
2011,09,25,14,40,25.20
2011,09,25,14,41,23.80
2011,09,25,14,42,22.00
2011,09,25,14,43,21.60
2011,09,25,14,44,20.60
2011,09,25,14,45,11.10
2011,09,25,14,46,18.10
2011,09,25,14,47,19.10
2011,09,25,14,48,17.70
2011,09,25,14,49,16.00
2011,09,25,14,50,27.10
2011,09,25,14,51,20.90
2011,09,25,14,52,15.40
2011,09,25,14,53,21.70
2011,09,25,14,54,19.10
2011,09,25,14,55,17.50
2011,09,25,14,56,20.60
2011,09,25,14,57,22.00
2011,09,25,14,58,19.10
2011,09,25,14,59,15.00
2011,09,25,15,00,16.00
2011,09,25,15,01,20.40
2011,09,25,15,02,14.10
2011,09,25,15,03,18.40
2011,09,25,15,04,18.80
2011,09,25,15,05,20.70
2011,09,25,15,06,20.40
2011,09,25,15,07,19.90
2011,09,25,15,08,12.80
2011,09,25,15,09,26.30
2011,09,25,15,10,17.50
2011,09,25,15,11,31.00
2011,09,25,15,12,24.60
2011,09,25,15,13,15.70
2011,09,25,15,14,14.40
2011,09,25,15,15,16.60
2011,09,25,15,16,14.90
2011,09,25,15,17,14.10
2011,09,25,15,18,21.20
2011,09,25,15,19,17.40
2011,09,25,15,20,17.20
2011,09,25,15,21,27.50
2011,09,25,15,22,23.80
2011,09,25,15,23,25.50
2011,09,25,15,24,23.50
2011,09,25,15,25,26.00
2011,09,25,15,26,26.40
2011,09,25,15,27,25.30
2011,09,25,15,28,28.50
2011,09,25,15,29,24.90
2011,09,25,15,30,20.70
2011,09,25,15,31,22.90
2011,09,25,15,32,20.40
2011,09,25,15,33,19.20
2011,09,25,15,34,18.10
2011,09,25,15,35,18.60
2011,09,25,15,36,18.00
2011,09,25,15,37,13.00
2011,09,25,15,38,22.80
2011,09,25,15,39,16.90
2011,09,25,15,40,23.40
2011,09,25,15,41,27.80
2011,09,25,15,42,22.80
2011,09,25,15,43,26.80
2011,09,25,15,44,28.90
2011,09,25,15,45,26.80
2011,09,25,15,46,19.20
2011,09,25,15,47,28.20
2011,09,25,15,48,23.20
2011,09,25,15,49,22.10
2011,09,25,15,50,20.80
2011,09,25,15,51,18.80
2011,09,25,15,52,20.20
2011,09,25,15,53,21.10
2011,09,25,15,54,28.70
2011,09,25,15,55,26.10
2011,09,25,15,56,29.20
2011,09,25,15,57,21.00
2011,09,25,15,58,16.90
2011,09,25,15,59,13.10
2011,09,25,16,00,20.80
2011,09,25,16,01,14.00
2011,09,25,16,02,11.10
2011,09,25,16,03,16.20
2011,09,25,16,04,22.70
2011,09,25,16,05,24.00
2011,09,25,16,06,20.90
2011,09,25,16,07,21.80
2011,09,25,16,08,20.80
2011,09,25,16,09,19.80
2011,09,25,16,10,16.50
2011,09,25,16,11,10.20
2011,09,25,16,12,18.80
2011,09,25,16,13,19.00
2011,09,25,16,14,14.30
2011,09,25,16,15,9.00
2011,09,25,16,16,10.10
2011,09,25,16,17,12.40
2011,09,25,16,18,17.80
2011,09,25,16,19,11.80
2011,09,25,16,20,18.00
2011,09,25,16,21,14.80
2011,09,25,16,22,11.50
2011,09,25,16,23,12.60
2011,09,25,16,24,11.60
2011,09,25,16,25,19.70
2011,09,25,16,26,16.90
2011,09,25,16,27,15.00
2011,09,25,16,28,9.70
2011,09,25,16,29,7.60
2011,09,25,16,30,10.50
2011,09,25,16,31,10.90
2011,09,25,16,32,16.20
2011,09,25,16,33,18.10
2011,09,25,16,34,14.10
2011,09,25,16,35,14.60
2011,09,25,16,36,10.30
2011,09,25,16,37,20.40
2011,09,25,16,38,20.10
2011,09,25,16,39,17.10
2011,09,25,16,40,13.90
2011,09,25,16,41,5.80
2011,09,25,16,42,10.90
2011,09,25,16,43,12.80
2011,09,25,16,44,7.50
2011,09,25,16,45,11.80
2011,09,25,16,46,20.50
2011,09,25,16,47,18.50
2011,09,25,16,48,8.70
2011,09,25,16,49,17.10
2011,09,25,16,50,18.70
2011,09,25,16,51,22.00
2011,09,25,16,52,18.30
2011,09,25,16,53,18.60
2011,09,25,16,54,13.40
2011,09,25,16,55,15.00
2011,09,25,16,56,24.90
2011,09,25,16,57,24.10
2011,09,25,16,58,21.20
2011,09,25,16,59,29.00
2011,09,25,17,00,26.90
2011,09,25,17,01,18.00
2011,09,25,17,02,16.80
2011,09,25,17,03,14.30
2011,09,25,17,04,14.60
2011,09,25,17,05,19.00
2011,09,25,17,06,17.30
2011,09,25,17,07,16.10
2011,09,25,17,08,17.90
2011,09,25,17,09,20.90
2011,09,25,17,10,17.50
2011,09,25,17,11,20.10
2011,09,25,17,12,20.10
2011,09,25,17,13,26.90
2011,09,25,17,14,19.40
2011,09,25,17,15,19.50
2011,09,25,17,16,22.40
2011,09,25,17,17,21.40
2011,09,25,17,18,19.10
2011,09,25,17,19,20.80
2011,09,25,17,20,22.10
2011,09,25,17,21,20.80
2011,09,25,17,22,14.00
2011,09,25,17,23,15.40
2011,09,25,17,24,20.40
2011,09,25,17,25,15.10
2011,09,25,17,26,20.40
2011,09,25,17,27,13.10
2011,09,25,17,28,20.90
2011,09,25,17,29,13.30
2011,09,25,17,30,16.00
2011,09,25,17,31,17.60
2011,09,25,17,32,15.50
2011,09,25,17,33,16.50
2011,09,25,17,34,18.80
2011,09,25,17,35,23.30
2011,09,25,17,36,16.60
2011,09,25,17,37,17.20
2011,09,25,17,38,21.10
2011,09,25,17,39,14.60
2011,09,25,17,40,18.70
2011,09,25,17,41,18.30
2011,09,25,17,42,19.80
2011,09,25,17,43,20.10
2011,09,25,17,44,19.70
2011,09,25,17,45,18.70